Weather reports worldwide

Advertisment
Madridejos, Spain (8273): temperature & dewpoint: 08.11.2018 13:00:00 - 14.11.2018 13:00:00 (CET)Madridejos, Spain (8273): wind speed & gusts: 08.11.2018 13:00:00 - 14.11.2018 13:00:00 (CET)Madridejos, Spain (8273): wind direction: 08.11.2018 13:00:00 - 14.11.2018 13:00:00 (CET)Madridejos, Spain (8273): reduced air pressure: 08.11.2018 13:00:00 - 14.11.2018 13:00:00 (CET)Madridejos, Spain (8273): visibility: 08.11.2018 13:00:00 - 14.11.2018 13:00:00 (CET)Madridejos, Spain (8273): sunshine duration: 08.11.2018 13:00:00 - 14.11.2018 13:00:00 (CET)Madridejos, Spain (8273): precipitation: 08.11.2018 13:00:00 - 14.11.2018 13:00:00 (CET)
Date & Time tt [°C] td [°C] ff [km/h] ff [kn] fx [km/h] fx [kn] dd ppp [hPa] vv [km] sd [min] rr [mm]
14.11.2018 13:00:00 - - - - - - - - - - -
14.11.2018 12:00:00 15,0 10,4 20 11 46 25 ESE 1020,8 20 40 0,0
14.11.2018 11:00:00 13,8 10,4 20 11 45 24 ESE 1021,5 20 48 0,0
14.11.2018 10:00:00 12,3 10,0 24 13 44 24 ESE 1022,1 18 6 0,0
14.11.2018 09:00:00 11,7 10,2 15 8 35 19 ESE 1022,2 12 0 0,0
14.11.2018 08:00:00 11,3 9,9 19 10 38 21 ESE 1022,0 9 0 0,0
14.11.2018 07:00:00 10,8 9,4 19 10 31 17 E 1022,4 8 0 -
14.11.2018 06:00:00 10,7 9,3 14 7 32 17 E 1022,6 8 0 0,0
14.11.2018 05:00:00 10,7 9,2 18 10 34 19 ESE 1022,7 9 0 0,0
14.11.2018 04:00:00 10,9 9,3 19 10 34 18 ESE 1023,0 9 0 0,0
14.11.2018 03:00:00 10,6 8,9 21 11 33 18 E 1023,4 10 0 0,0
14.11.2018 02:00:00 10,6 8,9 19 10 31 17 E 1023,7 12 0 0,0
14.11.2018 01:00:00 10,8 8,9 13 7 36 20 E 1024,2 16 0 -
14.11.2018 00:00:00 11,2 9,2 16 9 34 18 ESE 1024,0 20 0 0,0
13.11.2018 23:00:00 11,3 9,0 19 10 32 17 E 1023,9 20 0 0,0
13.11.2018 22:00:00 11,5 8,9 8 4 35 19 ESE 1023,8 20 0 0,0
13.11.2018 21:00:00 12,1 9,3 18 10 35 19 E 1023,4 20 0 0,0
13.11.2018 20:00:00 12,9 9,6 16 9 32 18 E 1023,3 20 0 0,0
13.11.2018 19:00:00 14,3 10,2 16 9 25 13 E 1022,3 20 0 -
13.11.2018 18:00:00 15,0 10,0 15 8 33 18 ENE 1021,6 16 11 0,0
13.11.2018 17:00:00 15,7 10,0 21 12 35 19 E 1021,2 20 43 0,0
13.11.2018 16:00:00 16,5 10,2 17 9 - - E 1020,6 20 - -
13.11.2018 15:00:00 16,2 10,3 14 8 37 20 E 1020,7 20 53 0,0
13.11.2018 14:00:00 15,5 9,8 19 10 38 20 E 1021,1 20 44 0,0
13.11.2018 13:00:00 14,1 10,2 13 7 35 19 E 1022,0 20 4 -
13.11.2018 12:00:00 12,1 9,7 13 7 - - E 1023,2 20 - -
13.11.2018 11:00:00 10,5 8,9 10 5 27 15 E 1023,8 16 0 0,0
13.11.2018 10:00:00 9,8 8,5 10 5 27 14 E 1023,8 5 0 0,0
13.11.2018 09:00:00 10,0 8,7 9 5 29 16 ESE 1023,1 4,6 0 0,0
13.11.2018 08:00:00 10,4 9,0 9 5 28 15 ESE 1022,2 6 0 0,0
13.11.2018 07:00:00 10,6 9,3 13 7 31 17 SE 1021,6 9 0 -
13.11.2018 06:00:00 10,2 9,0 6 3 22 12 E - - 0 0,0
13.11.2018 05:00:00 9,5 8,3 5 3 19 10 ESE 1021,6 0,5 0 0,0
13.11.2018 04:00:00 8,8 7,6 1 1 5 3 SE 1021,8 4,3 0 0,0
13.11.2018 03:00:00 8,0 6,7 1 1 18 10 NW 1021,9 3,4 0 0,0
13.11.2018 02:00:00 6,6 5,1 2 1 5 3 N 1021,9 5 0 0,0
13.11.2018 01:00:00 7,0 5,5 4 2 9 5 W - - 0 -
13.11.2018 00:00:00 7,9 6,2 2 1 10 6 WNW 1020,5 1,3 0 0,0
12.11.2018 23:00:00 8,5 6,2 6 4 11 6 WNW 1020,4 3,4 0 0,0
12.11.2018 22:00:00 9,6 7,1 4 2 15 8 NNW 1019,5 17 0 0,0
12.11.2018 21:00:00 10,5 6,8 11 6 17 9 WNW 1018,6 20 0 0,0
12.11.2018 20:00:00 12,1 7,0 6 3 16 9 W 1017,4 20 0 0,0
12.11.2018 19:00:00 13,6 7,4 2 1 17 9 ESE 1016,1 20 0 -
12.11.2018 18:00:00 15,2 6,7 - - - - - 1015,0 20 14 0,0
12.11.2018 17:00:00 16,2 6,4 - - - - - 1014,1 20 50 0,0
12.11.2018 16:00:00 16,1 5,1 11 6 25 14 SE 1013,9 20 34 0,0
12.11.2018 15:00:00 15,8 8,8 5 3 24 13 N 1014,1 20 26 0,0
12.11.2018 14:00:00 15,3 8,8 9 5 20 11 NW 1014,5 20 54 0,0
12.11.2018 13:00:00 15,0 9,8 13 7 22 12 NNW 1014,9 20 23 -
12.11.2018 12:00:00 14,5 8,9 8 4 22 12 SSE 1015,5 20 15 0,0
12.11.2018 11:00:00 14,4 9,2 6 3 18 10 SSE 1014,6 20 37 0,0
12.11.2018 10:00:00 11,7 9,3 8 5 - - SSE 1015,1 20 25 0,0
12.11.2018 09:00:00 9,6 8,3 9 5 - - SE 1014,8 20 27 0,0
12.11.2018 08:00:00 8,2 6,7 10 6 - - SSE 1014,3 14 0 0,0
12.11.2018 07:00:00 7,9 6,5 13 7 29 16 SE 1013,7 19 0 -
12.11.2018 06:00:00 8,0 6,7 12 7 - - SSE 1013,9 16 0 0,0
12.11.2018 05:00:00 7,5 5,8 5 3 26 14 ESE 1014,5 20 0 0,0
12.11.2018 04:00:00 8,0 6,2 13 7 24 13 E 1014,0 20 0 0,0
12.11.2018 03:00:00 9,7 8,0 6 4 16 9 S 1013,3 20 0 0,0
12.11.2018 02:00:00 9,4 7,6 7 4 21 11 SE 1013,3 20 0 0,0
12.11.2018 01:00:00 10,0 8,0 - - - - - 1013,2 20 0 -
12.11.2018 00:00:00 9,8 7,7 5 3 12 7 SSW 1012,9 20 0 0,0
11.11.2018 23:00:00 9,8 7,7 6 4 11 6 SSW 1012,6 20 0 0,0
11.11.2018 22:00:00 9,5 7,0 5 3 17 9 WNW 1012,8 20 0 0,0
11.11.2018 21:00:00 12,2 8,3 2 1 16 8 S 1011,7 20 0 0,0
11.11.2018 20:00:00 12,8 8,9 6 4 13 7 ESE 1011,4 20 0 0,0
11.11.2018 19:00:00 14,2 9,7 5 3 - - E 1011,0 20 0 -
11.11.2018 18:00:00 16,4 10,0 8 4 27 15 S 1010,4 20 30 0,0
11.11.2018 17:00:00 16,7 9,7 15 8 44 24 S 1010,4 20 50 0,0
11.11.2018 16:00:00 16,8 9,9 14 8 39 21 S 1010,7 20 49 0,0
11.11.2018 15:00:00 17,0 10,9 13 7 33 18 S 1011,3 20 24 0,0
11.11.2018 14:00:00 15,1 11,1 13 7 25 14 SSE 1013,0 20 0 0,0
11.11.2018 13:00:00 15,2 10,8 13 7 27 14 SSE 1013,9 20 12 -
11.11.2018 12:00:00 15,4 10,5 11 6 35 19 SW 1014,7 20 34 0,0
11.11.2018 11:00:00 14,3 10,8 13 7 34 19 SW 1015,5 20 19 0,0
11.11.2018 10:00:00 12,3 10,5 6 3 16 9 SSE 1016,0 20 0 0,0
11.11.2018 09:00:00 12,0 10,0 5 3 15 8 SSE 1015,7 20 0 0,0
11.11.2018 08:00:00 11,8 9,7 9 5 20 11 SW 1015,1 20 0 0,0
11.11.2018 07:00:00 12,2 10,4 12 6 30 16 SW 1015,0 20 0 -
11.11.2018 06:00:00 11,8 10,2 7 4 16 8 SSE 1014,8 20 0 0,0
11.11.2018 05:00:00 12,1 10,0 9 5 30 16 SSE 1015,0 19 0 0,0
11.11.2018 04:00:00 12,1 10,0 13 7 32 17 SW 1015,4 20 0 0,0
11.11.2018 03:00:00 12,0 9,9 10 5 36 19 S 1015,4 20 0 0,0
11.11.2018 02:00:00 12,1 9,8 13 7 - - S 1015,6 20 0 0,0
11.11.2018 01:00:00 12,0 9,7 18 10 - - S 1015,9 20 0 -
11.11.2018 00:00:00 11,8 9,6 19 11 - - SSW 1015,9 20 0 0,0
10.11.2018 23:00:00 11,9 9,3 - - - - - 1016,2 20 0 0,0
10.11.2018 22:00:00 11,7 9,0 15 8 - - S 1015,8 20 0 0,0
10.11.2018 21:00:00 11,6 8,8 15 8 37 20 S 1016,0 20 0 0,0
10.11.2018 20:00:00 11,7 8,8 16 9 - - SSW 1015,7 20 0 0,0
10.11.2018 19:00:00 11,7 8,5 20 11 38 21 SSW 1015,4 20 0 -
10.11.2018 18:00:00 12,1 8,5 19 10 44 24 SSW 1014,9 20 6 0,0
10.11.2018 17:00:00 12,7 8,9 24 13 46 25 SW 1014,7 20 11 0,0
10.11.2018 16:00:00 12,9 8,9 24 13 46 25 SW 1014,4 20 3 0,0
10.11.2018 15:00:00 12,5 8,8 24 13 52 28 SW 1014,8 20 0 0,0
10.11.2018 14:00:00 12,1 8,4 22 12 49 26 SW 1015,3 20 0 0,0
10.11.2018 13:00:00 12,0 8,3 20 11 54 29 SW 1016,0 20 0 -
10.11.2018 12:00:00 11,5 8,1 24 13 47 25 SW 1016,7 20 0 0,0
10.11.2018 11:00:00 10,8 7,7 13 7 38 21 SSW 1017,5 20 0 0,0
10.11.2018 10:00:00 10,4 7,7 14 8 34 19 SW 1017,6 20 0 0,0
10.11.2018 09:00:00 9,6 7,1 22 12 34 18 SW 1017,5 20 0 0,0
10.11.2018 08:00:00 9,4 7,0 17 9 29 16 SW 1017,4 20 0 0,0
10.11.2018 07:00:00 9,3 6,8 18 10 32 17 SW 1017,3 20 0 -
10.11.2018 06:00:00 9,4 6,8 17 9 31 17 SW 1017,5 20 0 0,0
10.11.2018 05:00:00 9,4 6,7 16 8 32 18 SW 1018,0 20 0 0,0
10.11.2018 04:00:00 9,3 6,2 13 7 32 17 SSW 1018,7 20 0 0,0
10.11.2018 03:00:00 9,1 5,8 10 5 34 19 SW 1019,2 20 0 0,0
10.11.2018 02:00:00 9,3 6,1 19 10 36 19 SW 1019,2 20 0 0,0
10.11.2018 01:00:00 9,3 6,1 15 8 34 19 SW 1019,7 20 0 -
10.11.2018 00:00:00 9,3 5,6 18 10 35 19 SW 1020,2 20 0 0,0
09.11.2018 23:00:00 9,1 5,3 18 10 30 16 SW 1020,4 20 0 0,0
09.11.2018 22:00:00 9,3 5,3 18 10 29 16 SW 1020,5 20 0 0,0
09.11.2018 21:00:00 8,7 5,1 10 6 23 12 SW 1020,7 20 0 0,0
09.11.2018 20:00:00 9,0 4,8 9 5 21 11 SW 1020,4 20 0 0,0
09.11.2018 19:00:00 9,5 4,5 5 3 31 17 SW 1019,8 20 0 -
09.11.2018 18:00:00 10,3 3,6 19 10 36 19 W 1019,4 20 22 0,0
09.11.2018 17:00:00 12,3 3,2 20 11 36 20 W 1018,4 20 60 0,0
09.11.2018 16:00:00 12,9 4,1 19 10 36 19 W 1018,1 20 59 0,0
09.11.2018 15:00:00 12,7 3,9 19 10 38 21 W 1018,5 20 60 0,0
09.11.2018 14:00:00 11,9 3,0 21 11 36 19 W 1019,3 20 49 0,0
09.11.2018 13:00:00 10,7 3,9 11 6 33 18 WNW 1020,2 20 51 -
09.11.2018 12:00:00 9,5 4,1 10 6 35 19 W 1021,1 20 58 0,0
09.11.2018 11:00:00 8,7 3,9 22 12 31 17 W 1021,2 20 60 0,0
09.11.2018 10:00:00 7,1 3,8 13 7 25 13 WSW 1021,4 20 60 0,0
09.11.2018 09:00:00 4,6 2,5 7 4 18 10 SSW 1021,4 20 45 0,0
09.11.2018 08:00:00 3,4 1,1 4 2 18 10 SW 1020,9 20 0 0,0
09.11.2018 07:00:00 4,4 1,7 8 4 23 12 WSW 1020,2 20 0 -
09.11.2018 06:00:00 4,8 2,1 14 8 30 16 W 1019,7 20 0 0,0
09.11.2018 05:00:00 4,8 2,7 11 6 21 11 W 1019,0 20 0 0,0
09.11.2018 04:00:00 5,0 2,9 9 5 21 11 W 1018,7 20 0 0,0
09.11.2018 03:00:00 5,5 3,4 15 8 21 11 W 1017,9 20 0 0,0
09.11.2018 02:00:00 5,5 2,9 10 5 20 11 W 1017,7 20 0 0,0
09.11.2018 01:00:00 7,1 3,9 14 8 22 12 W 1016,9 20 0 -
09.11.2018 00:00:00 7,8 4,3 14 8 29 16 W 1016,2 20 0 0,0
08.11.2018 23:00:00 7,5 4,8 9 5 62 33 W 1015,5 20 0 0,4
08.11.2018 22:00:00 9,7 6,4 14 7 31 17 WSW 1015,3 20 0 0,0
08.11.2018 21:00:00 10,2 7,4 14 8 32 18 WSW 1014,7 20 0 0,0
08.11.2018 20:00:00 10,6 8,0 16 9 31 17 W 1013,8 20 0 0,0
08.11.2018 19:00:00 11,3 9,9 9 5 19 11 WSW 1012,6 20 0 -
08.11.2018 18:00:00 11,3 9,6 6 3 28 15 SSE 1012,3 6 0 0,8
08.11.2018 17:00:00 11,4 9,3 11 6 29 15 SSE 1012,6 20 0 0,2
08.11.2018 16:00:00 11,7 9,3 11 6 22 12 SSE 1013,1 20 0 0,2
08.11.2018 15:00:00 12,2 9,0 7 4 34 18 SSE 1014,1 20 0 0,2
08.11.2018 14:00:00 12,7 8,1 11 6 23 13 SSE 1014,8 20 1 0,0
08.11.2018 13:00:00 11,6 8,3 12 6 31 17 SE 1016,2 20 27 -

tt = temperature
td = dewpoint
ff = wind speed
fx = gusts
dd = wind direction
ppp = reduced air pressure
vv = visibility
sd = sunshine duration
rr = precipitation

Next stations